This is the latest recevied weather packets stored in our database for station/object AB4KY. If no packets are shown the sender has not sent any weather packets the latest 10 day(s).
| Time | Temp. | Humidity | Pressure | Rain* | Wind** | Luminosity | Snow |
|---|---|---|---|---|---|---|---|
| 1777490963 | 18.89° C | 76% | 1009.5 hPa | 0 mm | - | 563 W/m² | - |
| 1777490659 | 18.89° C | 74% | 1009.6 hPa | 0 mm | - | 542 W/m² | - |
| 1777490355 | 18.33° C | 78% | 1009.7 hPa | 0 mm | - | 765 W/m² | - |
| 1777490053 | 17.78° C | 80% | 1009.9 hPa | 0 mm | - | 669 W/m² | - |
| 1777489750 | 17.22° C | 82% | 1009.7 hPa | 0 mm | - | 204 W/m² | - |
| 1777489447 | 16.67° C | 80% | 1009.8 hPa | 0 mm | - | 172 W/m² | - |
| 1777489144 | 17.22° C | 81% | 1009.4 hPa | 0 mm | - | 208 W/m² | - |
| 1777488841 | 17.22° C | 85% | 1009.8 hPa | 0 mm | - | 234 W/m² | - |
| 1777488538 | 17.22° C | 84% | 1009.7 hPa | 0 mm | - | 276 W/m² | - |
| 1777488236 | 17.78° C | 83% | 1009.8 hPa | 0 mm | - | 206 W/m² | - |
| 1777487934 | 17.78° C | 84% | 1009.5 hPa | 0 mm | - | 486 W/m² | - |
| 1777487631 | 16.67° C | 85% | 1009.5 hPa | 0 mm | - | 546 W/m² | - |
| 1777487328 | 16.67° C | 88% | 1009.7 hPa | 0 mm | - | 226 W/m² | - |
| 1777487026 | 16.11° C | 89% | 1009.6 hPa | 0 mm | - | 146 W/m² | - |
| 1777486721 | 16.11° C | 85% | 1009.5 hPa | 0 mm | - | 146 W/m² | - |
| 1777486420 | 16.67° C | 86% | 1009.6 hPa | 0 mm | - | 401 W/m² | - |
| 1777486117 | 17.22° C | 88% | 1009.6 hPa | 0 mm | - | 234 W/m² | - |
| 1777485813 | 16.67° C | 91% | 1009.8 hPa | 0 mm | - | 684 W/m² | - |
| 1777485509 | 16.11° C | 92% | 1009.6 hPa | 0 mm | - | 460 W/m² | - |
| 1777485205 | 15.56° C | 89% | 1009.7 hPa | 0 mm | - | 208 W/m² | - |
| 1777484902 | 16.11° C | 90% | 1009.7 hPa | 0 mm | - | 268 W/m² | - |
| 1777484599 | 15.56° C | 98% | 1009.8 hPa | 0 mm | - | 648 W/m² | - |
| 1777484295 | 13.89° C | 99% | 1009.6 hPa | 0 mm | - | 292 W/m² | - |
| 1777483991 | 13.89° C | 99% | 1009.5 hPa | 0 mm | - | 181 W/m² | - |
| 1777483688 | 14.44° C | 99% | 1009.5 hPa | 0 mm | - | 147 W/m² | - |
* Rain latest hour (hover to see other rain measurements)
** Current wind speed in m/s (hover to see current wind gust speed)